AYN7078 UGKO-UAAA

Flight info

Callsign AYN7078
Flight time 3h 22m
Altitude 35000
Route VIZRO H5 DF N11 KUFAN/K0841F350 A921 IPLED N37 MASAV N161 DIVNO DCT TOMGO M610 TIPSA TIPSA1X
Aircraft A320/M-SDE3FGHIRWY/LB1

Departure

Time 2026-05-07 10:18
Airport David the Builder Kutaisi International Airport (UGKO)

Arrival

Time 2026-05-07 13:40
Airport Almaty International Airport (UAAA)
Time Latitude Longitude Altitude Speed Heading
2026-05-07 09:49 42.18150 42.46648 141 ft 0 kts 69°
2026-05-07 10:04 42.18148 42.46643 140 ft 3 kts 69°
2026-05-07 10:04 42.18139 42.46609 140 ft 4 kts 69°
2026-05-07 10:04 42.18129 42.46575 140 ft 4 kts 69°
2026-05-07 10:05 42.18120 42.46541 140 ft 4 kts 69°
2026-05-07 10:05 42.18113 42.46516 140 ft 0 kts 69°
2026-05-07 10:06 42.18112 42.46516 140 ft 0 kts 69°
2026-05-07 10:10 42.18112 42.46515 140 ft 0 kts 69°
2026-05-07 10:12 42.18113 42.46518 140 ft 1 kts 69°
2026-05-07 10:13 42.18118 42.46534 140 ft 3 kts 69°
2026-05-07 10:13 42.18124 42.46563 140 ft 4 kts 81°
2026-05-07 10:13 42.18109 42.46592 140 ft 4 kts 145°
2026-05-07 10:13 42.18077 42.46613 140 ft 6 kts 158°
2026-05-07 10:14 42.18035 42.46633 140 ft 7 kts 162°
2026-05-07 10:14 42.17993 42.46613 140 ft 8 kts 236°
2026-05-07 10:14 42.17955 42.46592 140 ft 7 kts 159°
2026-05-07 10:14 42.17910 42.46621 140 ft 8 kts 146°
2026-05-07 10:15 42.17866 42.46670 140 ft 9 kts 139°
2026-05-07 10:15 42.17810 42.46715 140 ft 10 kts 164°
2026-05-07 10:15 42.17737 42.46735 140 ft 11 kts 170°
2026-05-07 10:15 42.17656 42.46753 140 ft 12 kts 171°
2026-05-07 10:16 42.17568 42.46772 141 ft 13 kts 171°
2026-05-07 10:16 42.17504 42.46834 141 ft 13 kts 96°
2026-05-07 10:16 42.17505 42.46857 141 ft 0 kts 80°
2026-05-07 10:17 42.17510 42.46894 141 ft 20 kts 80°
2026-05-07 10:17 42.17582 42.47442 140 ft 98 kts 81°
2026-05-07 10:18 42.17727 42.48629 144 ft 156 kts 80°
2026-05-07 10:18 42.17917 42.50249 419 ft 182 kts 81°
2026-05-07 10:18 42.18107 42.51960 1071 ft 190 kts 80°
2026-05-07 10:18 42.18297 42.53735 1858 ft 190 kts 83°
2026-05-07 10:19 42.18417 42.55509 2539 ft 196 kts 86°
2026-05-07 10:19 42.18388 42.57448 3019 ft 213 kts 95°
2026-05-07 10:19 42.18225 42.59475 3383 ft 225 kts 97°
2026-05-07 10:19 42.18014 42.61654 3607 ft 246 kts 97°
2026-05-07 10:20 42.17781 42.64056 3956 ft 267 kts 97°
2026-05-07 10:20 42.17547 42.66543 4656 ft 274 kts 97°
2026-05-07 10:20 42.17312 42.69113 5425 ft 277 kts 97°
2026-05-07 10:20 42.17081 42.71708 6221 ft 280 kts 97°
2026-05-07 10:21 42.16853 42.74319 6990 ft 283 kts 97°
2026-05-07 10:21 42.16624 42.76981 7723 ft 285 kts 97°
2026-05-07 10:21 42.16396 42.79650 8475 ft 288 kts 97°
2026-05-07 10:21 42.16164 42.82341 9212 ft 290 kts 97°
2026-05-07 10:22 42.15932 42.85026 9943 ft 293 kts 97°
2026-05-07 10:22 42.15694 42.87779 10445 ft 303 kts 97°
2026-05-07 10:22 42.15440 42.90708 10583 ft 326 kts 97°
2026-05-07 10:22 42.15171 42.93843 10714 ft 346 kts 97°
2026-05-07 10:23 42.14887 42.97131 11066 ft 357 kts 97°
2026-05-07 10:23 42.14595 43.00476 11612 ft 361 kts 97°
2026-05-07 10:23 42.14294 43.03851 12178 ft 364 kts 97°
2026-05-07 10:23 42.13990 43.07250 12768 ft 367 kts 97°
2026-05-07 10:24 42.13685 43.10681 13370 ft 369 kts 97°
2026-05-07 10:24 42.13383 43.14128 13970 ft 372 kts 97°
2026-05-07 10:24 42.13079 43.17563 14499 ft 375 kts 97°
2026-05-07 10:24 42.12764 43.21071 14994 ft 377 kts 97°
2026-05-07 10:25 42.12445 43.24596 15491 ft 380 kts 97°
2026-05-07 10:25 42.12124 43.28142 15965 ft 383 kts 97°
2026-05-07 10:25 42.11803 43.31725 16455 ft 386 kts 97°
2026-05-07 10:25 42.11496 43.35294 16935 ft 389 kts 97°
2026-05-07 10:26 42.11195 43.38930 17433 ft 392 kts 96°
2026-05-07 10:26 42.10895 43.42594 17911 ft 395 kts 96°
2026-05-07 10:26 42.10590 43.46288 18386 ft 398 kts 97°
2026-05-07 10:26 42.10278 43.50013 18818 ft 401 kts 97°
2026-05-07 10:27 42.09956 43.53771 19260 ft 404 kts 97°
2026-05-07 10:27 42.09627 43.57553 19704 ft 407 kts 97°
2026-05-07 10:27 42.09296 43.61306 20138 ft 409 kts 97°
2026-05-07 10:27 42.08925 43.65114 20561 ft 412 kts 101°
2026-05-07 10:28 42.08262 43.68876 20974 ft 414 kts 104°
2026-05-07 10:28 42.07559 43.72645 21376 ft 416 kts 104°
2026-05-07 10:28 42.06854 43.76446 21775 ft 419 kts 105°
2026-05-07 10:28 42.06145 43.80267 22147 ft 421 kts 105°
2026-05-07 10:29 42.05439 43.84055 22531 ft 423 kts 105°
2026-05-07 10:29 42.04719 43.87911 22918 ft 425 kts 104°
2026-05-07 10:29 42.03998 43.91783 23295 ft 428 kts 105°
2026-05-07 10:30 42.02534 43.99596 23983 ft 432 kts 105°
2026-05-07 10:30 42.01792 44.03533 24290 ft 434 kts 105°
2026-05-07 10:30 42.01049 44.07473 24594 ft 436 kts 106°
2026-05-07 10:30 42.00309 44.11375 24885 ft 437 kts 105°
2026-05-07 10:31 41.99555 44.15357 25185 ft 439 kts 106°
2026-05-07 10:31 41.98799 44.19342 25487 ft 441 kts 106°
2026-05-07 10:31 41.98036 44.23359 25795 ft 443 kts 106°
2026-05-07 10:31 41.97271 44.27383 26110 ft 445 kts 106°
2026-05-07 10:32 41.96500 44.31430 26421 ft 447 kts 106°
2026-05-07 10:32 41.95725 44.35482 26845 ft 446 kts 106°
2026-05-07 10:32 41.94952 44.39519 27286 ft 445 kts 107°
2026-05-07 10:32 41.94187 44.43501 27701 ft 445 kts 107°
2026-05-07 10:33 41.93473 44.47201 28091 ft 444 kts 107°
2026-05-07 10:33 41.92697 44.51216 28528 ft 443 kts 107°
2026-05-07 10:33 41.92010 44.55265 28932 ft 445 kts 101°
2026-05-07 10:33 41.91756 44.59419 29326 ft 448 kts 92°
2026-05-07 10:34 41.91865 44.63610 29717 ft 449 kts 90°
2026-05-07 10:34 41.91994 44.67759 30124 ft 448 kts 90°
2026-05-07 10:34 41.92119 44.71951 30469 ft 448 kts 90°
2026-05-07 10:34 41.92240 44.76145 30778 ft 449 kts 90°
2026-05-07 10:35 41.92355 44.80351 31089 ft 450 kts 90°
2026-05-07 10:35 41.92468 44.84502 31398 ft 451 kts 90°
2026-05-07 10:35 41.92544 44.87340 31600 ft 451 kts 90°
2026-05-07 10:35 41.92694 44.92939 31996 ft 453 kts 90°
2026-05-07 10:36 41.92804 44.97176 32288 ft 454 kts 90°
2026-05-07 10:36 41.92912 45.01419 32587 ft 455 kts 90°
2026-05-07 10:36 41.92984 45.04232 32785 ft 455 kts 90°
2026-05-07 10:36 41.93093 45.08492 33071 ft 457 kts 90°
2026-05-07 10:37 41.93203 45.12776 33378 ft 458 kts 90°
2026-05-07 10:37 41.93311 45.17071 33678 ft 459 kts 90°
2026-05-07 10:37 41.93420 45.21361 33965 ft 460 kts 90°
2026-05-07 10:37 41.93522 45.25661 34214 ft 461 kts 90°
2026-05-07 10:38 41.93619 45.29912 34434 ft 461 kts 90°
2026-05-07 10:38 41.93715 45.34227 34679 ft 461 kts 91°
2026-05-07 10:38 41.93811 45.38540 34916 ft 461 kts 90°
2026-05-07 10:38 41.93908 45.42851 35097 ft 462 kts 91°
2026-05-07 10:39 41.94102 45.51566 35167 ft 472 kts 91°
2026-05-07 10:39 41.94296 45.60466 35161 ft 482 kts 91°
2026-05-07 10:40 41.94480 45.69492 35162 ft 484 kts 91°
2026-05-07 10:40 41.94658 45.78534 35175 ft 485 kts 91°
2026-05-07 10:41 41.94833 45.87592 35178 ft 485 kts 91°
2026-05-07 10:41 41.94990 45.96669 35177 ft 485 kts 91°
2026-05-07 10:42 41.95138 46.05685 35176 ft 485 kts 91°
2026-05-07 10:42 41.95285 46.14754 35183 ft 485 kts 91°
2026-05-07 10:43 41.95581 46.23833 35187 ft 488 kts 83°
2026-05-07 10:43 41.97556 46.32569 35180 ft 491 kts 64°
2026-05-07 10:44 42.01099 46.40344 35186 ft 491 kts 57°
2026-05-07 10:44 42.04767 46.48120 35199 ft 492 kts 58°
2026-05-07 10:45 42.08412 46.55909 35183 ft 491 kts 58°
2026-05-07 10:45 42.12044 46.63681 35185 ft 491 kts 58°
2026-05-07 10:46 42.15688 46.71476 35181 ft 491 kts 58°
2026-05-07 10:46 42.19334 46.79275 35174 ft 491 kts 58°
2026-05-07 10:47 42.22944 46.87026 35169 ft 491 kts 58°
2026-05-07 10:47 42.26572 46.94851 35162 ft 490 kts 58°
2026-05-07 10:48 42.30180 47.02659 35163 ft 490 kts 59°
2026-05-07 10:48 42.33770 47.10451 35157 ft 490 kts 58°
2026-05-07 10:49 42.37378 47.18273 35149 ft 490 kts 58°
2026-05-07 10:49 42.40985 47.26113 35140 ft 490 kts 59°
2026-05-07 10:50 42.44575 47.33960 35133 ft 490 kts 59°
2026-05-07 10:50 42.48142 47.41780 35124 ft 490 kts 59°
2026-05-07 10:51 42.51733 47.49645 35115 ft 490 kts 59°
2026-05-07 10:51 42.55311 47.57515 35099 ft 490 kts 59°
2026-05-07 10:52 42.58875 47.65408 35099 ft 490 kts 59°
2026-05-07 10:52 42.62420 47.73258 35093 ft 490 kts 59°
2026-05-07 10:53 42.65988 47.81164 35089 ft 490 kts 59°
2026-05-07 10:53 42.69547 47.89079 35087 ft 490 kts 60°
2026-05-07 10:54 42.73076 47.96960 35087 ft 490 kts 60°
2026-05-07 10:54 42.76622 48.04899 35083 ft 490 kts 60°
2026-05-07 10:55 42.80160 48.12838 35078 ft 490 kts 60°
2026-05-07 10:55 42.83685 48.20785 35079 ft 490 kts 60°
2026-05-07 10:56 42.87176 48.28701 35079 ft 490 kts 60°
2026-05-07 10:56 42.90688 48.36671 35076 ft 490 kts 60°
2026-05-07 10:57 42.94194 48.44643 35077 ft 490 kts 61°
2026-05-07 10:57 42.97700 48.52625 35074 ft 490 kts 61°
2026-05-07 10:58 43.01203 48.60619 35074 ft 490 kts 61°
2026-05-07 10:58 43.04679 48.68584 35073 ft 490 kts 61°
2026-05-07 10:59 43.08169 48.76607 35069 ft 490 kts 62°
2026-05-07 10:59 43.11650 48.84632 35067 ft 490 kts 62°
2026-05-07 11:00 43.15128 48.92677 35067 ft 491 kts 62°
2026-05-07 11:00 43.18582 49.00680 35060 ft 491 kts 62°
2026-05-07 11:01 43.22065 49.08759 35059 ft 491 kts 62°
2026-05-07 11:01 43.25537 49.16845 35055 ft 492 kts 62°
2026-05-07 11:02 43.29008 49.24948 35047 ft 492 kts 62°
2026-05-07 11:02 43.32455 49.33033 35045 ft 493 kts 63°
2026-05-07 11:03 43.35918 49.41164 35049 ft 493 kts 63°
2026-05-07 11:03 43.39381 49.49346 35046 ft 493 kts 66°
2026-05-07 11:04 43.42129 49.57879 35046 ft 490 kts 70°
2026-05-07 11:04 43.44822 49.66519 35049 ft 490 kts 70°
2026-05-07 11:05 43.47517 49.75159 35047 ft 490 kts 70°
2026-05-07 11:05 43.50179 49.83754 35046 ft 490 kts 71°
2026-05-07 11:06 43.52848 49.92408 35043 ft 490 kts 71°
2026-05-07 11:06 43.55522 50.01098 35041 ft 490 kts 71°
2026-05-07 11:07 43.58161 50.09703 35042 ft 491 kts 71°
2026-05-07 11:07 43.60814 50.18400 35042 ft 491 kts 71°
2026-05-07 11:08 43.63473 50.27101 35036 ft 490 kts 71°
2026-05-07 11:08 43.66096 50.35736 35039 ft 490 kts 71°
2026-05-07 11:09 43.68728 50.44423 35033 ft 490 kts 71°
2026-05-07 11:09 43.71352 50.53128 35034 ft 489 kts 71°
2026-05-07 11:10 43.73946 50.61783 35030 ft 489 kts 71°
2026-05-07 11:10 43.76549 50.70484 35031 ft 489 kts 71°
2026-05-07 11:11 43.79140 50.79150 35030 ft 489 kts 71°
2026-05-07 11:11 43.81740 50.87867 35028 ft 489 kts 71°
2026-05-07 11:12 43.84323 50.96581 35023 ft 489 kts 71°
2026-05-07 11:12 43.86891 51.05267 35020 ft 489 kts 71°
2026-05-07 11:13 43.89497 51.14002 35018 ft 490 kts 70°
2026-05-07 11:13 43.92150 51.22737 35017 ft 491 kts 70°
2026-05-07 11:14 43.94789 51.31476 35013 ft 491 kts 70°
2026-05-07 11:14 43.97393 51.40179 35010 ft 491 kts 70°
2026-05-07 11:15 44.00016 51.48973 35006 ft 491 kts 70°
2026-05-07 11:15 44.02624 51.57754 35001 ft 492 kts 71°
2026-05-07 11:16 44.05221 51.66506 34997 ft 492 kts 70°
2026-05-07 11:16 44.07828 51.75320 34994 ft 492 kts 70°
2026-05-07 11:17 44.10424 51.84132 34995 ft 493 kts 71°
2026-05-07 11:17 44.13018 51.92979 34992 ft 493 kts 71°
2026-05-07 11:18 44.15588 52.01784 34994 ft 493 kts 71°
2026-05-07 11:18 44.18170 52.10654 34988 ft 493 kts 71°
2026-05-07 11:19 44.20744 52.19518 34986 ft 493 kts 71°
2026-05-07 11:19 44.23360 52.28330 34985 ft 494 kts 69°
2026-05-07 11:20 44.26118 52.37113 34981 ft 494 kts 69°
2026-05-07 11:20 44.28893 52.45911 34979 ft 494 kts 69°
2026-05-07 11:21 44.31624 52.54749 34978 ft 494 kts 69°
2026-05-07 11:21 44.34310 52.63540 34977 ft 494 kts 69°
2026-05-07 11:22 44.37009 52.72392 34978 ft 494 kts 69°
2026-05-07 11:22 44.39253 52.79747 34982 ft 494 kts 69°
2026-05-07 11:23 44.41941 52.88596 34977 ft 494 kts 69°
2026-05-07 11:23 44.45067 52.98906 34976 ft 494 kts 69°
2026-05-07 11:24 44.47309 53.06338 34983 ft 494 kts 70°
2026-05-07 11:24 44.49958 53.15153 34977 ft 494 kts 70°
2026-05-07 11:25 44.52624 53.24036 34974 ft 494 kts 70°
2026-05-07 11:25 44.55274 53.32887 34976 ft 494 kts 70°
2026-05-07 11:26 44.57920 53.41789 34976 ft 494 kts 70°
2026-05-07 11:26 44.60568 53.50713 34984 ft 494 kts 70°
2026-05-07 11:27 44.63193 53.59586 34978 ft 494 kts 70°
2026-05-07 11:27 44.65827 53.68516 34985 ft 497 kts 68°
2026-05-07 11:28 44.68474 53.77518 34951 ft 498 kts 69°
2026-05-07 11:28 44.71107 53.86544 34949 ft 500 kts 69°
2026-05-07 11:29 44.73750 53.95621 34952 ft 501 kts 69°
2026-05-07 11:29 44.76376 54.04640 34955 ft 501 kts 69°
2026-05-07 11:30 44.79018 54.13744 34958 ft 502 kts 69°
2026-05-07 11:30 44.81634 54.22818 34963 ft 502 kts 69°
2026-05-07 11:31 44.84247 54.31942 34964 ft 501 kts 69°
2026-05-07 11:31 44.86856 54.41065 34966 ft 501 kts 69°
2026-05-07 11:32 44.90745 54.54694 34963 ft 501 kts 69°
2026-05-07 11:33 44.93336 54.63841 34967 ft 501 kts 69°
2026-05-07 11:33 44.95920 54.72989 34969 ft 501 kts 70°
2026-05-07 11:34 44.98496 54.82157 34971 ft 501 kts 70°
2026-05-07 11:34 45.01060 54.91321 34968 ft 501 kts 70°
2026-05-07 11:35 45.03612 55.00440 34972 ft 501 kts 70°
2026-05-07 11:35 45.06178 55.09616 34969 ft 501 kts 70°
2026-05-07 11:36 45.08731 55.18826 34970 ft 501 kts 70°
2026-05-07 11:36 45.11249 55.27974 34970 ft 501 kts 70°
2026-05-07 11:37 45.13779 55.37182 34966 ft 501 kts 70°
2026-05-07 11:37 45.16289 55.46345 34963 ft 501 kts 70°
2026-05-07 11:38 45.18815 55.55572 34965 ft 501 kts 70°
2026-05-07 11:38 45.21317 55.64757 34965 ft 501 kts 71°
2026-05-07 11:39 45.23821 55.73988 34961 ft 501 kts 71°
2026-05-07 11:39 45.26315 55.83232 34962 ft 501 kts 71°
2026-05-07 11:40 45.28792 55.92447 34957 ft 500 kts 71°
2026-05-07 11:40 45.31271 56.01726 34953 ft 500 kts 71°
2026-05-07 11:41 45.33719 56.10927 34952 ft 500 kts 71°
2026-05-07 11:41 45.36178 56.20187 34946 ft 500 kts 71°
2026-05-07 11:42 45.38636 56.29457 34945 ft 500 kts 71°
2026-05-07 11:42 45.41083 56.38729 34945 ft 500 kts 71°
2026-05-07 11:43 45.43510 56.47952 34945 ft 500 kts 71°
2026-05-07 11:43 45.45933 56.57253 34959 ft 500 kts 72°
2026-05-07 11:44 45.48344 56.66510 34951 ft 500 kts 72°
2026-05-07 11:44 45.50764 56.75823 34952 ft 500 kts 72°
2026-05-07 11:45 45.53176 56.85135 34954 ft 500 kts 72°
2026-05-07 11:45 45.55564 56.94417 34952 ft 500 kts 72°
2026-05-07 11:46 45.57961 57.03775 34946 ft 500 kts 72°
2026-05-07 11:46 45.60333 57.13067 34947 ft 501 kts 72°
2026-05-07 11:47 45.62714 57.22424 34953 ft 500 kts 72°
2026-05-07 11:47 45.65082 57.31786 34949 ft 500 kts 72°
2026-05-07 11:48 45.67443 57.41152 34947 ft 500 kts 72°
2026-05-07 11:48 45.69786 57.50468 34947 ft 500 kts 72°
2026-05-07 11:49 45.72140 57.59860 34945 ft 500 kts 73°
2026-05-07 11:49 45.73480 57.69509 34942 ft 491 kts 92°
2026-05-07 11:50 45.73151 57.79123 34935 ft 486 kts 99°
2026-05-07 11:50 45.72614 57.88796 34931 ft 487 kts 99°
2026-05-07 11:51 45.72086 57.98470 34932 ft 487 kts 99°
2026-05-07 11:51 45.71545 58.08078 34937 ft 487 kts 99°
2026-05-07 11:52 45.70988 58.17753 34934 ft 487 kts 99°
2026-05-07 11:52 45.70416 58.27420 34933 ft 487 kts 100°
2026-05-07 11:53 45.69842 58.37082 34929 ft 487 kts 100°
2026-05-07 11:53 45.69262 58.46702 34923 ft 487 kts 100°
2026-05-07 11:54 45.68677 58.56372 34925 ft 488 kts 100°
2026-05-07 11:54 45.68081 58.66062 34917 ft 487 kts 100°
2026-05-07 11:55 45.67467 58.75700 34921 ft 487 kts 101°
2026-05-07 11:55 45.66848 58.85366 34923 ft 487 kts 101°
2026-05-07 11:56 45.66239 58.94963 34919 ft 487 kts 101°
2026-05-07 11:56 45.65616 59.04600 34917 ft 487 kts 101°
2026-05-07 11:57 45.64971 59.14240 34914 ft 487 kts 101°
2026-05-07 11:57 45.64317 59.23874 34915 ft 487 kts 101°
2026-05-07 11:58 45.63659 59.33526 34910 ft 487 kts 101°
2026-05-07 11:58 45.63000 59.43153 34912 ft 487 kts 101°
2026-05-07 11:59 45.62332 59.52746 34908 ft 487 kts 101°
2026-05-07 11:59 45.61654 59.62388 34905 ft 487 kts 102°
2026-05-07 12:00 45.60965 59.72030 34903 ft 487 kts 102°
2026-05-07 12:00 45.60269 59.81604 34904 ft 488 kts 102°
2026-05-07 12:01 45.59561 59.91247 34905 ft 488 kts 102°
2026-05-07 12:01 45.58854 60.00874 34908 ft 488 kts 102°
2026-05-07 12:02 45.58138 60.10512 34905 ft 488 kts 102°
2026-05-07 12:02 45.57412 60.20155 34912 ft 488 kts 102°
2026-05-07 12:03 45.56677 60.29724 34915 ft 487 kts 102°
2026-05-07 12:03 45.55923 60.39352 34918 ft 487 kts 102°
2026-05-07 12:04 45.55171 60.48970 34917 ft 487 kts 102°
2026-05-07 12:04 45.54424 60.58508 34917 ft 486 kts 102°
2026-05-07 12:05 45.53661 60.68090 34922 ft 486 kts 102°
2026-05-07 12:05 45.52882 60.77672 34907 ft 485 kts 102°
2026-05-07 12:06 45.52098 60.87247 34906 ft 485 kts 102°
2026-05-07 12:06 45.51319 60.96757 34899 ft 485 kts 102°
2026-05-07 12:07 45.50520 61.06330 34897 ft 485 kts 103°
2026-05-07 12:07 45.49718 61.15834 34892 ft 485 kts 103°
2026-05-07 12:08 45.48909 61.25383 34887 ft 485 kts 103°
2026-05-07 12:08 45.48226 61.33327 34880 ft 485 kts 103°
2026-05-07 12:09 45.47397 61.42874 34879 ft 485 kts 103°
2026-05-07 12:09 45.46563 61.52425 34875 ft 484 kts 103°
2026-05-07 12:10 45.45724 61.61949 34868 ft 484 kts 103°
2026-05-07 12:10 45.44885 61.71402 34861 ft 483 kts 103°
2026-05-07 12:11 45.44031 61.80885 34863 ft 483 kts 103°
2026-05-07 12:11 45.43177 61.90188 34855 ft 482 kts 103°
2026-05-07 12:12 45.42308 61.99675 34860 ft 482 kts 103°
2026-05-07 12:12 45.41438 62.09099 34853 ft 482 kts 103°
2026-05-07 12:13 45.40545 62.18579 34846 ft 482 kts 103°
2026-05-07 12:13 45.39675 62.27803 34846 ft 483 kts 103°
2026-05-07 12:14 45.38780 62.37275 34844 ft 483 kts 103°
2026-05-07 12:14 45.37872 62.46732 34843 ft 482 kts 104°
2026-05-07 12:15 45.36946 62.56195 34847 ft 482 kts 104°
2026-05-07 12:15 45.36018 62.65652 34852 ft 482 kts 104°
2026-05-07 12:16 45.35120 62.74851 34852 ft 482 kts 104°
2026-05-07 12:16 45.34186 62.84288 34859 ft 482 kts 104°
2026-05-07 12:17 45.33256 62.93533 34861 ft 482 kts 104°
2026-05-07 12:17 45.32307 63.02955 34862 ft 482 kts 104°
2026-05-07 12:18 45.31341 63.12394 34865 ft 482 kts 104°
2026-05-07 12:18 45.30369 63.21812 34870 ft 482 kts 104°
2026-05-07 12:19 45.29415 63.30993 34867 ft 482 kts 104°
2026-05-07 12:19 45.28428 63.40422 34867 ft 483 kts 104°
2026-05-07 12:20 45.27433 63.49872 34868 ft 483 kts 104°
2026-05-07 12:20 45.26437 63.59264 34868 ft 484 kts 104°
2026-05-07 12:21 45.25427 63.68738 34866 ft 485 kts 105°
2026-05-07 12:21 45.24400 63.78203 34868 ft 485 kts 105°
2026-05-07 12:22 45.23367 63.87690 34871 ft 486 kts 105°
2026-05-07 12:22 45.22333 63.97195 34872 ft 487 kts 105°
2026-05-07 12:23 45.21289 64.06636 34876 ft 487 kts 105°
2026-05-07 12:23 45.20225 64.16141 34880 ft 487 kts 105°
2026-05-07 12:24 45.19164 64.25580 34887 ft 487 kts 105°
2026-05-07 12:24 45.18084 64.35098 34885 ft 488 kts 105°
2026-05-07 12:25 45.16998 64.44588 34893 ft 488 kts 105°
2026-05-07 12:25 45.15910 64.54027 34886 ft 488 kts 105°
2026-05-07 12:26 45.14811 64.63535 34898 ft 488 kts 104°
2026-05-07 12:26 45.13704 64.73029 34893 ft 488 kts 104°
2026-05-07 12:27 45.12598 64.82465 34890 ft 488 kts 104°
2026-05-07 12:27 45.11501 64.91754 34893 ft 488 kts 104°
2026-05-07 12:28 45.10398 65.01049 34894 ft 488 kts 104°
2026-05-07 12:28 45.09253 65.10536 34901 ft 488 kts 104°
2026-05-07 12:29 45.08116 65.19953 34902 ft 488 kts 104°
2026-05-07 12:29 45.06966 65.29425 34900 ft 488 kts 104°
2026-05-07 12:30 45.05826 65.38714 34900 ft 488 kts 104°
2026-05-07 12:30 45.04650 65.48175 34903 ft 488 kts 104°
2026-05-07 12:31 45.03463 65.57648 34908 ft 489 kts 104°
2026-05-07 12:31 45.02290 65.67057 34910 ft 489 kts 104°
2026-05-07 12:32 45.01099 65.76528 34906 ft 489 kts 104°
2026-05-07 12:32 44.99901 65.85943 34904 ft 489 kts 104°
2026-05-07 12:33 44.98077 66.00145 34900 ft 490 kts 104°
2026-05-07 12:33 44.96851 66.09618 34899 ft 490 kts 104°
2026-05-07 12:34 44.95614 66.19097 34902 ft 490 kts 104°
2026-05-07 12:34 44.94381 66.28508 34901 ft 490 kts 104°
2026-05-07 12:35 44.93135 66.37974 34906 ft 490 kts 104°
2026-05-07 12:35 44.91882 66.47441 34904 ft 490 kts 104°
2026-05-07 12:36 44.90626 66.56893 34910 ft 490 kts 104°
2026-05-07 12:36 44.89349 66.66352 34912 ft 490 kts 104°
2026-05-07 12:37 44.88068 66.75752 34910 ft 490 kts 104°
2026-05-07 12:37 44.86777 66.85191 34910 ft 490 kts 104°
2026-05-07 12:38 44.85485 66.94648 34915 ft 490 kts 104°
2026-05-07 12:38 44.84189 67.04028 34931 ft 490 kts 104°
2026-05-07 12:39 44.82874 67.13476 34928 ft 490 kts 104°
2026-05-07 12:39 44.81552 67.22923 34938 ft 490 kts 104°
2026-05-07 12:40 44.80231 67.32314 34938 ft 490 kts 104°
2026-05-07 12:40 44.78893 67.41730 34933 ft 490 kts 104°
2026-05-07 12:41 44.77556 67.51099 34933 ft 490 kts 104°
2026-05-07 12:41 44.76206 67.60517 34934 ft 490 kts 104°
2026-05-07 12:42 44.74848 67.69919 34939 ft 490 kts 104°
2026-05-07 12:42 44.73487 67.79333 34942 ft 490 kts 104°
2026-05-07 12:43 44.72119 67.88712 34938 ft 490 kts 104°
2026-05-07 12:43 44.70747 67.98041 34941 ft 489 kts 104°
2026-05-07 12:44 44.69357 68.07431 34947 ft 489 kts 104°
2026-05-07 12:44 44.67959 68.16788 34945 ft 489 kts 104°
2026-05-07 12:45 44.66571 68.26092 34947 ft 488 kts 104°
2026-05-07 12:45 44.65166 68.35432 34947 ft 488 kts 104°
2026-05-07 12:46 44.63752 68.44760 34945 ft 488 kts 104°
2026-05-07 12:46 44.62336 68.54043 34946 ft 488 kts 104°
2026-05-07 12:47 44.60904 68.63369 34948 ft 488 kts 104°
2026-05-07 12:47 44.59467 68.72703 34944 ft 488 kts 104°
2026-05-07 12:48 44.58035 68.81961 34944 ft 488 kts 104°
2026-05-07 12:48 44.56584 68.91279 34943 ft 488 kts 104°
2026-05-07 12:49 44.55126 69.00595 34940 ft 488 kts 104°
2026-05-07 12:49 44.53662 69.09851 34939 ft 489 kts 104°
2026-05-07 12:50 44.52184 69.19162 34941 ft 489 kts 104°
2026-05-07 12:50 44.50700 69.28482 34941 ft 490 kts 104°
2026-05-07 12:51 44.49207 69.37795 34942 ft 490 kts 104°
2026-05-07 12:51 44.47713 69.47057 34940 ft 490 kts 104°
2026-05-07 12:52 44.46195 69.56385 34943 ft 490 kts 104°
2026-05-07 12:52 44.44935 69.64142 34945 ft 490 kts 104°
2026-05-07 12:53 44.43167 69.74977 34945 ft 491 kts 104°
2026-05-07 12:53 44.41893 69.82723 34948 ft 491 kts 104°
2026-05-07 12:54 44.40350 69.92036 34953 ft 491 kts 104°
2026-05-07 12:54 44.38793 70.01331 34954 ft 491 kts 104°
2026-05-07 12:55 44.37242 70.10579 34955 ft 491 kts 104°
2026-05-07 12:55 44.35685 70.19870 34959 ft 490 kts 104°
2026-05-07 12:56 44.34116 70.29161 34954 ft 490 kts 104°
2026-05-07 12:56 44.32536 70.38433 34957 ft 490 kts 104°
2026-05-07 12:57 44.30955 70.47619 34959 ft 489 kts 104°
2026-05-07 12:57 44.29370 70.56863 34958 ft 489 kts 104°
2026-05-07 12:58 44.27779 70.66107 34960 ft 489 kts 104°
2026-05-07 12:58 44.26185 70.75334 34959 ft 488 kts 104°
2026-05-07 12:59 44.24583 70.84488 34960 ft 488 kts 104°
2026-05-07 12:59 44.22961 70.93702 34958 ft 487 kts 104°
2026-05-07 13:00 44.21348 71.02883 34956 ft 487 kts 104°
2026-05-07 13:00 44.19733 71.11988 34953 ft 486 kts 104°
2026-05-07 13:01 44.18102 71.21131 34950 ft 485 kts 104°
2026-05-07 13:01 44.16466 71.30276 34951 ft 485 kts 104°
2026-05-07 13:02 44.14828 71.39387 34944 ft 484 kts 104°
2026-05-07 13:02 44.13193 71.48417 34946 ft 483 kts 104°
2026-05-07 13:03 44.11540 71.57511 34947 ft 483 kts 104°
2026-05-07 13:03 44.09882 71.66593 34950 ft 482 kts 104°
2026-05-07 13:04 44.08228 71.75584 34948 ft 482 kts 104°
2026-05-07 13:04 44.06560 71.84613 34945 ft 482 kts 104°
2026-05-07 13:05 44.04897 71.93612 34950 ft 482 kts 104°
2026-05-07 13:05 44.03219 72.02640 34953 ft 481 kts 104°
2026-05-07 13:06 44.01533 72.11653 34952 ft 481 kts 105°
2026-05-07 13:06 43.99847 72.20605 34955 ft 481 kts 105°
2026-05-07 13:07 43.98148 72.29600 34957 ft 481 kts 105°
2026-05-07 13:07 43.96438 72.38594 34957 ft 481 kts 105°
2026-05-07 13:08 43.94724 72.47560 34961 ft 481 kts 105°
2026-05-07 13:08 43.93007 72.56524 34964 ft 481 kts 105°
2026-05-07 13:09 43.91294 72.65437 34961 ft 480 kts 105°
2026-05-07 13:09 43.89566 72.74393 34960 ft 480 kts 105°
2026-05-07 13:10 43.87832 72.83351 34966 ft 480 kts 105°
2026-05-07 13:10 43.86090 72.92305 34971 ft 480 kts 106°
2026-05-07 13:11 43.84344 73.01182 34973 ft 480 kts 106°
2026-05-07 13:11 43.82576 73.10163 34972 ft 480 kts 106°
2026-05-07 13:12 43.80827 73.19021 34973 ft 480 kts 106°
2026-05-07 13:12 43.79055 73.27938 34977 ft 479 kts 106°
2026-05-07 13:13 43.77284 73.36799 34977 ft 479 kts 106°
2026-05-07 13:13 43.75506 73.45683 34979 ft 479 kts 106°
2026-05-07 13:14 43.73716 73.54564 34978 ft 478 kts 106°
2026-05-07 13:14 43.71915 73.63451 34974 ft 479 kts 106°
2026-05-07 13:15 43.70143 73.72278 34973 ft 479 kts 103°
2026-05-07 13:15 43.69432 73.81412 34976 ft 478 kts 91°
2026-05-07 13:16 43.69183 73.90620 34974 ft 479 kts 91°
2026-05-07 13:16 43.68913 73.99820 34975 ft 479 kts 91°
2026-05-07 13:17 43.68632 74.08971 34980 ft 480 kts 92°
2026-05-07 13:17 43.68347 74.18183 34988 ft 480 kts 91°
2026-05-07 13:18 43.68073 74.27417 34992 ft 480 kts 91°
2026-05-07 13:18 43.67800 74.36585 35002 ft 481 kts 91°
2026-05-07 13:19 43.67506 74.45832 35008 ft 481 kts 91°
2026-05-07 13:19 43.67208 74.55080 35018 ft 482 kts 91°
2026-05-07 13:20 43.66903 74.64279 35021 ft 482 kts 91°
2026-05-07 13:20 43.66583 74.73562 35024 ft 482 kts 91°
2026-05-07 13:21 43.66264 74.82759 35026 ft 481 kts 91°
2026-05-07 13:21 43.65936 74.92007 35022 ft 481 kts 91°
2026-05-07 13:22 43.65596 75.01235 34979 ft 483 kts 91°
2026-05-07 13:22 43.65424 75.05876 34133 ft 497 kts 91°
2026-05-07 13:22 43.65245 75.10678 33187 ft 501 kts 91°
2026-05-07 13:23 43.65068 75.15446 32755 ft 494 kts 92°
2026-05-07 13:23 43.64888 75.20173 31874 ft 495 kts 92°
2026-05-07 13:23 43.64704 75.24978 30897 ft 500 kts 92°
2026-05-07 13:23 43.64522 75.29725 30464 ft 491 kts 93°
2026-05-07 13:24 43.64340 75.34422 29840 ft 487 kts 93°
2026-05-07 13:24 43.64158 75.39043 28881 ft 488 kts 93°
2026-05-07 13:24 43.63968 75.43727 27946 ft 489 kts 93°
2026-05-07 13:24 43.63772 75.48411 27169 ft 487 kts 93°
2026-05-07 13:25 43.63577 75.53067 26455 ft 483 kts 93°
2026-05-07 13:25 43.63385 75.57661 26106 ft 471 kts 93°
2026-05-07 13:25 43.63196 75.62138 25701 ft 462 kts 94°
2026-05-07 13:25 43.63008 75.66537 25169 ft 457 kts 94°
2026-05-07 13:26 43.62822 75.70852 24612 ft 453 kts 94°
2026-05-07 13:26 43.62635 75.75181 24046 ft 449 kts 94°
2026-05-07 13:26 43.62448 75.79471 23477 ft 446 kts 94°
2026-05-07 13:26 43.62261 75.83720 22975 ft 439 kts 94°
2026-05-07 13:27 43.62076 75.87885 22784 ft 426 kts 94°
2026-05-07 13:27 43.61894 75.91937 22399 ft 420 kts 94°
2026-05-07 13:27 43.61718 75.95887 21958 ft 416 kts 94°
2026-05-07 13:27 43.61540 75.99858 21486 ft 412 kts 94°
2026-05-07 13:28 43.61360 76.03794 21019 ft 409 kts 94°
2026-05-07 13:28 43.61179 76.07699 20546 ft 406 kts 94°
2026-05-07 13:28 43.60998 76.11581 20088 ft 403 kts 94°
2026-05-07 13:28 43.60821 76.15426 19628 ft 399 kts 94°
2026-05-07 13:29 43.60642 76.19239 19181 ft 396 kts 94°
2026-05-07 13:29 43.60458 76.23016 18730 ft 393 kts 93°
2026-05-07 13:29 43.60184 76.26703 18200 ft 387 kts 102°
2026-05-07 13:29 43.59304 76.30177 17313 ft 381 kts 118°
2026-05-07 13:30 43.57796 76.33142 16438 ft 375 kts 134°
2026-05-07 13:30 43.55803 76.35419 15590 ft 369 kts 150°
2026-05-07 13:30 43.53551 76.37052 14733 ft 364 kts 155°
2026-05-07 13:30 43.51285 76.38602 13919 ft 361 kts 155°
2026-05-07 13:31 43.49076 76.40114 13088 ft 357 kts 155°
2026-05-07 13:31 43.46859 76.41638 12337 ft 351 kts 155°
2026-05-07 13:31 43.44742 76.43104 12157 ft 330 kts 155°
2026-05-07 13:31 43.42733 76.44492 11790 ft 317 kts 155°
2026-05-07 13:32 43.40816 76.45925 11412 ft 309 kts 147°
2026-05-07 13:32 43.39157 76.47835 11164 ft 313 kts 137°
2026-05-07 13:32 43.37577 76.49919 10730 ft 317 kts 137°
2026-05-07 13:32 43.36047 76.51929 10494 ft 313 kts 137°
2026-05-07 13:33 43.34472 76.53991 10051 ft 310 kts 137°
2026-05-07 13:33 43.32908 76.56028 9430 ft 309 kts 137°
2026-05-07 13:33 43.31373 76.58021 8877 ft 305 kts 137°
2026-05-07 13:33 43.29842 76.60022 8366 ft 300 kts 137°
2026-05-07 13:34 43.28374 76.61940 8203 ft 282 kts 137°
2026-05-07 13:34 43.26199 76.66108 7693 ft 267 kts 109°
2026-05-07 13:34 43.25725 76.68565 7324 ft 262 kts 103°
2026-05-07 13:35 43.25327 76.70968 6858 ft 261 kts 103°
2026-05-07 13:35 43.24921 76.73405 6312 ft 262 kts 103°
2026-05-07 13:35 43.24528 76.75791 6081 ft 249 kts 103°
2026-05-07 13:35 43.24158 76.78032 5956 ft 232 kts 102°
2026-05-07 13:36 43.24049 76.80141 5862 ft 213 kts 84°
2026-05-07 13:36 43.24409 76.82062 5521 ft 206 kts 65°
2026-05-07 13:36 43.25137 76.83699 5238 ft 197 kts 55°
2026-05-07 13:36 43.25895 76.85216 4983 ft 188 kts 56°
2026-05-07 13:37 43.26616 76.86661 4774 ft 176 kts 56°
2026-05-07 13:37 43.27270 76.87971 4534 ft 163 kts 56°
2026-05-07 13:37 43.27898 76.89232 4333 ft 158 kts 56°
2026-05-07 13:37 43.28518 76.90475 4131 ft 156 kts 55°
2026-05-07 13:38 43.29131 76.91706 3930 ft 155 kts 55°
2026-05-07 13:38 43.29737 76.92923 3733 ft 154 kts 55°
2026-05-07 13:38 43.30139 76.93730 3594 ft 154 kts 55°
2026-05-07 13:38 43.30741 76.94940 3399 ft 153 kts 55°
2026-05-07 13:39 43.31339 76.96142 3197 ft 152 kts 54°
2026-05-07 13:39 43.31939 76.97344 2983 ft 152 kts 54°
2026-05-07 13:39 43.32543 76.98535 2780 ft 152 kts 54°
2026-05-07 13:39 43.33137 76.99736 2609 ft 152 kts 54°
2026-05-07 13:40 43.33726 77.00933 2405 ft 152 kts 54°
2026-05-07 13:40 43.34317 77.02109 2235 ft 148 kts 54°
2026-05-07 13:40 43.34754 77.03002 2231 ft 69 kts 56°
2026-05-07 13:40 43.34894 77.03283 2232 ft 29 kts 54°
2026-05-07 13:41 43.35024 77.03550 2233 ft 34 kts 57°
2026-05-07 13:41 43.35147 77.03805 2232 ft 25 kts 52°
2026-05-07 13:41 43.35289 77.03940 2227 ft 26 kts 21°
2026-05-07 13:41 43.35431 77.03982 2228 ft 12 kts 313°
2026-05-07 13:42 43.35407 77.03878 2231 ft 12 kts 236°
2026-05-07 13:42 43.35358 77.03778 2233 ft 13 kts 236°
2026-05-07 13:42 43.35306 77.03671 2233 ft 14 kts 236°
2026-05-07 13:42 43.35248 77.03554 2234 ft 15 kts 235°
2026-05-07 13:43 43.35186 77.03433 2235 ft 16 kts 235°
2026-05-07 13:43 43.35118 77.03299 2234 ft 18 kts 234°
2026-05-07 13:43 43.35045 77.03150 2234 ft 20 kts 237°
2026-05-07 13:43 43.34963 77.02986 2232 ft 22 kts 235°
2026-05-07 13:44 43.34877 77.02812 2232 ft 23 kts 237°
2026-05-07 13:44 43.34791 77.02628 2234 ft 21 kts 237°
2026-05-07 13:44 43.34769 77.02457 2234 ft 15 kts 272°
2026-05-07 13:44 43.34777 77.02288 2226 ft 20 kts 272°
2026-05-07 13:45 43.34789 77.02083 2226 ft 23 kts 273°
2026-05-07 13:45 43.34800 77.01891 2223 ft 17 kts 275°
2026-05-07 13:45 43.34808 77.01726 2226 ft 18 kts 273°
2026-05-07 13:45 43.34822 77.01558 2224 ft 13 kts 298°
2026-05-07 13:46 43.34854 77.01516 2223 ft 5 kts 328°
2026-05-07 13:46 43.34871 77.01472 2226 ft 6 kts 280°
2026-05-07 13:46 43.34857 77.01425 2222 ft 2 kts 252°
2026-05-07 13:46 43.34851 77.01404 2224 ft 0 kts 246°
2026-05-07 13:47 43.34847 77.01392 2222 ft 2 kts 246°
2026-05-07 13:47 43.34845 77.01386 2223 ft 0 kts 246°